Location: Aguacate
(10.0667°N, 67.4333°W)
Time: 11:28:33
(UTC+00:00)

Daily predictions for brighter satellites

Satellite Brightness Start Highest point End
(mag) Time Altitude Azimuth Time Altitude Azimuth Time Altitude Azimuth
GENESIS II 4.2 22:56:43 10° NNW 23:00:36 88° WSW 23:04:22 10° SSE
Cosmos 1437 Rocket 2.8 22:57:27 10° S 23:01:26 80° E 23:05:28 10° N
SL-27 R/B 2.2 22:58:08 10° S 23:01:28 68° ESE 23:04:46 10° NNE
Milstar 3 Cent rocket 4.5 22:57:00 10° NNW 23:02:21 24° NNE 23:10:59 10° ENE
Cosmos 2297 Rocket 3.7 22:59:35 10° SE 23:02:26 14° ESE 23:05:16 10° ENE
CZ-4 R/B 4.4 23:00:13 10° SSE 23:04:19 64° ENE 23:08:25 10° N
Cosmos 1727 Rocket 4.0 22:59:41 10° S 23:06:00 71° E 23:12:16 10° N
Fermi 4.0 23:06:01 10° WSW 23:10:05 69° NNW 23:14:09 10° ENE
Cosmos 1933 Rocket 4.1 23:06:20 10° SSE 23:10:18 35° E 23:14:14 10° NNE
Intelsat 5-1 Rocket 4.2 23:11:38 10° NW 23:14:56 23° N 23:21:17 10° ENE
CZ-3B Rocket 2.0 23:13:08 10° W 23:16:31 72° NNW 23:23:29 10° ENE
Cosmos 2251 Rocket 4.2 23:14:17 10° NNE 23:18:55 32° ENE 23:23:32 10° SE
GPS 2-12 Rocket1 4.3 23:19:13 10° NW 23:23:02 27° N 23:26:06 14° ENE
Cosmos 2228 Rocket 3.8 23:18:46 10° NNW 23:23:14 60° W 23:27:40 10° S
SL-16 R/B 2.1 23:20:40 10° N 23:26:16 67° ENE 23:31:52 10° SSE
SL-4 R/B 2.5 23:23:45 10° SSW 23:28:12 50° SE 23:32:20 12° NE
Gbstr 26 Del rocket 4.3 23:23:25 10° NW 23:29:49 80° SW 23:37:28 10° SSE
BREEZE-M DEB (TANK) 2.3 23:26:16 10° SW 23:30:04 88° WNW 23:32:43 10° NE
GPS 2-04 Rocket1 4.3 23:30:36 10° S 23:32:47 15° SE 23:32:55 15° SE
ATLAS 3B CENTAUR R/B 1.0 23:29:51 10° SW 23:33:24 47° SSE 23:34:36 30° E
CZ-4B DEB 4.2 23:28:06 10° SSE 23:33:38 88° W 23:39:10 10° NNW
PAYLOAD B 4.2 23:28:42 10° SSE 23:34:08 64° ENE 23:39:35 10° N
Meteor 1-23 Rocket 4.5 23:30:25 10° NNE 23:35:40 44° E 23:40:57 10° SSE
Cosmos 1867 3.6 23:31:11 10° SSW 23:36:35 87° WNW 23:42:00 10° NNE
Cosmos 2360 Rocket 2.9 23:32:11 10° N 23:37:07 31° ENE 23:40:02 20° ESE
Cosmos 1140 Rocket 3.6 23:34:50 10° N 23:39:52 50° ENE 23:44:54 10° SSE
Cosmos 1862 Rocket 3.5 23:35:46 10° N 23:40:14 82° E 23:44:42 10° S
FUSE 3.9 23:36:35 10° WSW 23:41:59 86° NNW 23:45:21 23° ENE
ARIANE 5 R/B 4.2 23:40:47 10° SW 23:42:15 12° SSW 23:43:19 10° S
Cosmos 1707 Rocket 4.3 23:38:41 10° NNW 23:42:57 55° W 23:47:13 10° S
BlueWalker 3 3.5 23:46:37 10° S 23:48:38 21° SSE 23:48:38 21° SSE
Cosmos 1626 4.4 23:47:03 10° NNE 23:47:14 11° NNE 23:47:14 11° NNE
Cosmos 2237 4.2 23:45:41 10° NNW 23:51:21 82° WSW 23:57:01 10° SSE
Cosmos 1975 3.1 23:49:24 10° S 23:53:16 67° W 23:57:10 10° N
NOSS 3-4 (A) 3.5 23:48:29 10° S 23:53:49 40° ESE 23:55:21 33° ENE
NOSS 3-4 (C) 3.6 23:48:40 10° S 23:53:57 39° ESE 23:55:16 34° E
IGS 5A 3.8 23:55:30 42° ENE 23:55:30 42° ENE 23:59:03 10° N
Lacrosse 5 rocket 3.2 23:51:48 10° WSW 23:55:50 33° WNW 23:59:45 10° N
